Wind_Speed
7 8 8 8 8 8 8 7 7 7 7 7 7 7 7 7 7 7 7 7 7 8 9 9 10 10 10 10 11 11 11 11 11 11 12 12 13 14 14 15 16 17 17
7 7 7 8 8 8 8 8 8 8 8 8 8 8 8 8 8 8 8 8 8 9 10 10 10 10 11 11 11 11 11 11 12 12 12 13 14 15 16 16 17 18 18
8 8 8 8 8 8 8 8 8 9 9 8 8 8 8 8 8 9 9 10 10 10 10 11 11 11 11 11 11 11 12 12 13 14 14 15 16 17 18 19 20 20 20
8 8 8 8 8 8 8 8 8 9 9 9 9 9 9 9 9 9 10 10 11 11 10 11 11 11 11 11 12 12 13 14 15 15 16 17 18 19 20 20 21 22 23
8 7 8 8 8 9 9 9 9 9 9 9 9 10 10 9 10 10 11 11 11 11 11 11 11 11 12 12 13 14 14 15 16 17 18 18 19 20 20 21 22 23 24
8 8 9 9 9 9 9 10 10 10 10 10 10 10 10 10 11 12 12 12 12 12 12 12 13 13 13 14 14 15 16 16 17 18 19 20 20 21 22 22 23 24 25
9 9 9 10 10 10 10 10 11 11 11 11 12 12 12 12 12 13 13 13 13 13 13 14 14 14 14 15 16 16 17 18 19 20 20 21 21 22 23 24 25 26 27
9 10 10 10 11 11 11 12 12 12 12 13 13 13 13 13 13 13 14 14 14 14 15 15 15 16 16 17 17 17 18 19 20 21 22 22 23 24 25 26 27 27 28
10 11 11 12 12 12 12 13 13 14 14 14 14 14 15 15 15 15 15 15 15 15 16 16 17 17 18 18 19 19 20 21 22 23 23 24 24 25 26 27 28 29 29
12 12 12 13 13 14 13 14 14 14 15 15 16 16 16 16 16 16 16 16 16 16 17 18 18 18 18 19 20 20 21 22 23 24 25 25 26 26 27 28 29 30 30
13 13 13 13 13 14 15 15 15 15 15 15 16 17 17 17 17 17 18 18 18 18 19 19 20 20 20 21 22 22 23 24 24 25 25 26 27 27 28 29 30 31 31
14 14 15 15 15 15 16 17 17 17 16 16 17 17 18 18 18 19 19 20 20 20 20 21 21 22 22 23 23 24 24 25 25 26 27 28 28 29 30 31 31 32 33
15 16 16 17 17 17 17 18 18 18 17 18 18 18 19 19 20 21 21 21 21 21 22 23 23 23 23 24 24 25 26 26 27 28 29 29 30 31 32 33 33 34 35
17 18 18 18 19 18 18 19 19 19 19 19 20 20 20 21 21 22 22 22 22 23 23 24 24 24 25 25 26 26 27 28 29 30 30 31 32 33 34 35 36 36 37
19 20 19 19 19 19 20 20 21 21 21 21 21 21 22 22 22 23 23 23 24 25 25 25 25 26 26 27 28 28 29 30 31 32 33 34 34 35 36 37 38 38 38
21 21 21 21 21 21 21 21 22 22 23 23 23 23 23 23 24 24 25 25 26 26 27 27 27 27 28 29 30 30 31 32 33 34 35 36 36 37 37 38 39 39 39
22 22 22 23 23 23 23 23 23 24 24 24 24 24 25 25 26 27 27 28 28 29 29 29 29 30 30 31 32 33 33 34 35 36 37 37 37 38 39 39 39 39 39
23 24 24 25 25 25 24 24 24 24 24 25 25 26 27 27 28 29 29 29 30 30 30 31 31 32 32 33 34 34 35 36 37 37 38 38 38 39 40 40 40 40 41
24 24 24 25 25 25 25 25 25 25 26 26 27 28 29 29 30 30 31 31 31 31 32 32 33 33 34 34 35 36 37 38 38 38 38 39 39 40 41 41 41 41 42
25 25 25 25 25 25 26 26 26 27 27 28 28 29 30 31 31 31 31 31 31 32 32 33 33 34 34 35 36 37 38 38 38 39 39 40 41 42 42 41 41 42 42
27 26 26 25 25 26 27 28 28 28 28 29 29 30 31 31 31 31 31 32 32 32 33 33 34 34 35 36 36 37 38 38 39 39 40 41 42 42 42 42 43 43 43
28 28 27 27 27 27 28 29 29 29 29 29 30 30 31 32 32 32 31 32 32 33 33 34 34 35 36 36 37 38 39 39 39 40 41 41 42 42 43 43 43 44 43
29 29 28 28 28 29 29 29 29 29 30 30 30 31 31 32 32 32 32 32 33 33 34 34 35 35 36 37 38 39 39 39 40 41 41 41 41 42 43 43 43 43 43
30 30 29 29 29 29 29 29 29 30 30 30 31 31 31 31 32 33 33 34 34 34 34 35 36 37 38 39 39 39 39 40 41 41 41 40 41 41 42 42 43 43 43
31 30 30 30 30 30 30 30 30 31 31 31 31 32 32 32 33 33 34 34 35 35 36 36 37 38 39 39 39 39 39 40 40 40 40 40 40 41 42 42 42 42 42
32 32 32 32 31 31 31 31 31 31 32 32 33 33 33 34 34 34 35 34 35 35 35 36 37 37 37 37 38 38 37 38 38 38 38 39 40 41 41 41 41 41 40
Wind_Direction
258 254 251 245 246 253 253 252 261 265 269 272 281 282 282 283 282 287 291 293 291 289 293 294 292 292 292 292 292 293 293 293 294 292 291 293 296 297 298 298 297 297 298
257 254 254 250 250 251 251 256 261 266 268 270 275 281 283 283 283 287 290 294 294 292 293 294 294 293 293 293 292 292 292 293 294 294 293 295 299 300 301 301 300 299 299
257 256 257 254 252 248 253 259 262 265 268 270 275 282 285 286 287 286 288 290 292 293 292 293 294 293 292 292 292 293 294 294 294 293 295 297 298 300 300 300 300 300 300
259 259 257 252 252 251 255 259 264 267 268 272 275 280 283 284 285 286 290 294 296 296 295 294 294 293 291 291 292 293 294 295 296 296 296 297 298 300 301 302 302 302 301
259 260 258 256 256 258 263 265 264 266 271 273 276 282 284 285 287 288 292 295 297 296 297 298 296 292 290 291 290 291 292 295 297 298 299 300 300 301 303 303 303 303 302
259 260 260 260 259 259 263 268 269 268 271 276 280 287 287 288 289 290 293 294 292 291 293 295 295 292 290 290 291 291 292 295 298 299 300 300 300 302 302 303 303 303 303
261 261 263 263 261 261 264 269 274 274 276 279 281 284 285 287 290 290 291 293 292 291 293 294 295 296 296 295 295 296 296 296 298 299 299 300 300 301 302 303 304 304 304
261 262 263 265 265 263 265 270 273 275 277 279 281 282 283 284 285 287 290 292 290 290 291 292 294 295 295 296 296 297 296 297 299 301 300 299 300 301 301 302 303 304 304
264 265 266 266 268 267 268 271 274 275 277 280 281 282 282 283 285 286 287 289 290 290 291 291 291 293 294 295 296 297 297 298 299 300 301 301 300 301 302 303 304 304 304
263 265 266 268 271 270 268 271 274 277 279 279 279 281 283 283 285 285 286 287 288 288 289 289 289 290 292 294 295 296 297 298 299 300 301 301 301 302 303 304 304 304 304
261 264 265 268 272 272 271 272 275 278 279 280 280 280 282 282 283 285 286 287 287 288 288 288 288 289 290 292 295 296 297 298 299 300 301 302 302 302 303 303 304 304 305
262 264 265 267 269 272 275 273 274 278 278 279 281 282 282 283 282 283 285 286 287 288 288 287 287 288 290 292 294 296 297 298 299 300 301 302 302 302 302 302 303 304 305
266 268 269 268 268 271 275 275 276 277 279 281 282 283 283 284 283 283 283 285 287 287 289 288 288 287 289 290 293 295 297 298 299 300 300 301 301 302 302 303 303 304 306
268 269 271 271 271 271 274 276 277 278 279 280 281 282 282 284 285 285 284 284 285 287 289 289 288 289 289 289 292 294 296 298 299 300 300 301 301 302 303 303 304 304 305
267 269 271 273 273 272 273 274 276 277 278 280 282 282 283 284 285 286 286 285 285 286 288 289 289 289 289 290 292 294 295 297 298 299 300 301 302 302 303 303 304 305 305
270 271 270 271 271 271 272 273 274 276 277 279 280 282 283 284 284 285 285 285 285 286 287 288 289 289 289 289 291 293 294 296 297 298 299 301 302 303 303 303 304 305 305
272 272 272 271 270 270 270 271 274 276 277 278 280 281 283 284 284 284 284 285 285 286 287 288 288 289 289 290 291 292 294 295 296 297 299 300 302 303 304 304 304 304 304
271 272 272 271 270 270 269 270 273 275 276 278 280 281 283 284 285 285 285 285 286 287 287 287 288 289 289 290 292 293 294 295 295 296 298 299 301 303 304 304 304 303 303
272 273 274 273 270 269 269 271 272 274 276 278 279 280 282 284 285 285 285 286 287 286 286 286 287 288 289 291 292 294 296 296 296 297 298 299 301 302 304 304 304 303 304
272 273 274 273 272 270 270 272 273 275 277 279 280 281 282 283 285 284 284 285 286 286 287 288 288 289 290 292 293 294 295 296 296 297 299 299 300 302 303 303 304 304 304
270 272 273 272 273 273 272 272 274 276 278 280 281 282 283 284 284 285 285 285 285 287 288 288 289 290 291 293 294 296 296 296 297 297 298 299 300 302 302 303 304 305 305
269 271 271 272 273 273 273 273 274 276 278 279 281 283 284 285 285 286 286 286 286 287 288 288 289 290 291 293 294 295 296 296 297 298 299 300 300 301 302 303 305 305 305
269 270 271 271 272 273 273 273 274 275 277 279 281 283 284 286 286 287 287 288 288 288 288 289 291 291 291 293 294 295 295 295 296 298 299 300 300 300 301 303 304 306 306
267 269 270 271 273 276 275 274 274 275 277 279 281 283 284 285 286 287 287 288 288 288 289 290 291 291 293 293 294 296 296 296 297 298 298 299 300 301 302 303 304 306 307
267 268 270 272 274 276 276 275 275 276 277 279 280 282 283 284 286 287 287 288 289 290 290 291 292 293 294 294 294 296 297 296 297 298 298 299 300 302 303 303 304 305 306
266 268 270 272 274 275 276 277 277 277 278 279 280 282 283 284 285 287 288 289 290 291 292 293 293 294 295 296 295 296 297 298 298 298 298 299 300 302 303 304 305 305 306
Height
5836 5837 5837 5837 5838 5838 5839 5839 5840 5840 5840 5840 5840 5840 5840 5840 5839 5839 5839 5838 5838 5837 5837 5836 5836 5835 5835 5834 5834 5834 5833 5833 5832 5831 5830 5830 5828 5827 5826 5825 5823 5822 5820
5835 5835 5835 5836 5837 5837 5838 5838 5838 5839 5839 5839 5839 5838 5838 5838 5838 5837 5837 5837 5836 5835 5835 5834 5834 5833 5832 5832 5831 5831 5830 5830 5829 5828 5827 5826 5825 5824 5822 5821 5819 5818 5816
5833 5834 5834 5835 5835 5836 5836 5836 5837 5837 5837 5837 5837 5837 5836 5836 5836 5835 5835 5835 5834 5833 5833 5832 5831 5831 5830 5829 5829 5828 5827 5827 5826 5825 5824 5822 5821 5820 5818 5817 5815 5813 5811
5831 5832 5832 5833 5834 5834 5834 5835 5835 5835 5835 5835 5835 5835 5834 5834 5834 5833 5833 5832 5831 5831 5830 5829 5829 5828 5827 5827 5826 5825 5824 5823 5822 5821 5820 5818 5817 5815 5813 5811 5809 5807 5805
5830 5830 5831 5831 5832 5832 5833 5833 5833 5833 5833 5833 5833 5833 5832 5832 5832 5831 5831 5830 5829 5828 5828 5827 5826 5825 5825 5824 5823 5822 5821 5820 5818 5817 5815 5814 5812 5810 5808 5806 5804 5802 5799
5828 5828 5829 5829 5830 5830 5831 5831 5831 5831 5831 5831 5831 5830 5830 5829 5829 5829 5828 5827 5826 5826 5825 5824 5823 5822 5821 5820 5819 5818 5817 5816 5814 5813 5811 5809 5807 5805 5803 5801 5798 5796 5794
5826 5826 5827 5827 5828 5828 5828 5828 5828 5828 5828 5828 5828 5828 5827 5827 5826 5826 5825 5824 5823 5822 5822 5821 5820 5819 5817 5816 5815 5814 5813 5811 5810 5808 5806 5804 5802 5800 5798 5795 5792 5790 5787
5823 5824 5824 5824 5825 5825 5825 5825 5825 5825 5825 5825 5825 5824 5824 5824 5823 5822 5821 5820 5820 5819 5818 5817 5816 5815 5814 5812 5811 5810 5808 5806 5805 5803 5801 5799 5796 5794 5792 5789 5786 5783 5780
5821 5821 5821 5821 5822 5822 5822 5822 5822 5822 5822 5822 5821 5821 5820 5820 5819 5818 5818 5817 5816 5815 5814 5813 5812 5811 5809 5808 5807 5805 5803 5801 5799 5797 5795 5792 5790 5787 5785 5782 5779 5776 5773
5817 5818 5818 5818 5818 5818 5818 5818 5818 5818 5818 5818 5817 5817 5816 5816 5815 5814 5813 5812 5812 5811 5810 5808 5807 5806 5805 5803 5801 5800 5798 5796 5794 5791 5789 5786 5784 5781 5778 5775 5772 5769 5765
5814 5814 5814 5814 5814 5814 5814 5815 5814 5814 5814 5814 5813 5813 5812 5811 5811 5810 5809 5808 5807 5806 5804 5803 5802 5801 5799 5797 5796 5794 5792 5790 5788 5785 5783 5780 5777 5774 5771 5768 5764 5761 5758
5810 5810 5810 5810 5810 5810 5810 5810 5810 5810 5810 5809 5809 5808 5807 5806 5806 5805 5804 5803 5801 5800 5799 5798 5796 5795 5793 5791 5790 5788 5786 5783 5781 5779 5776 5773 5770 5767 5763 5760 5756 5753 5749
5805 5805 5805 5806 5806 5806 5805 5805 5805 5805 5805 5804 5804 5803 5802 5801 5800 5799 5798 5797 5796 5794 5793 5792 5790 5788 5787 5785 5783 5781 5779 5777 5774 5772 5769 5766 5762 5759 5755 5752 5748 5744 5740
5800 5800 5800 5800 5800 5800 5800 5800 5800 5799 5799 5799 5798 5797 5796 5795 5794 5793 5792 5791 5789 5788 5787 5785 5783 5781 5780 5778 5776 5774 5772 5769 5767 5764 5761 5758 5754 5750 5746 5743 5739 5734 5730
5794 5795 5795 5795 5794 5794 5794 5794 5794 5793 5793 5793 5792 5791 5790 5789 5788 5787 5785 5784 5782 5781 5779 5778 5776 5774 5773 5771 5768 5766 5763 5761 5758 5755 5752 5748 5745 5741 5737 5733 5729 5724 5720
5788 5788 5788 5788 5788 5788 5787 5787 5787 5787 5786 5785 5785 5784 5783 5782 5781 5780 5778 5777 5775 5773 5772 5770 5768 5767 5765 5762 5760 5758 5755 5752 5749 5746 5742 5739 5735 5732 5727 5723 5719 5714 5709
5780 5780 5780 5780 5780 5780 5780 5780 5780 5780 5779 5778 5777 5776 5775 5774 5773 5772 5770 5769 5767 5765 5763 5762 5760 5758 5756 5753 5751 5748 5745 5742 5739 5736 5732 5729 5725 5721 5717 5713 5708 5703 5699
5772 5772 5772 5772 5772 5772 5772 5772 5772 5772 5771 5771 5770 5768 5767 5766 5764 5763 5761 5759 5758 5756 5754 5752 5750 5748 5746 5743 5741 5738 5735 5732 5729 5725 5722 5718 5714 5710 5706 5702 5697 5692 5688
5764 5764 5763 5763 5762 5763 5763 5763 5763 5763 5763 5762 5761 5760 5758 5757 5755 5753 5751 5750 5748 5746 5744 5742 5740 5738 5735 5733 5730 5727 5724 5721 5718 5714 5711 5707 5703 5699 5695 5690 5685 5680 5676
5755 5755 5755 5754 5754 5754 5754 5754 5754 5754 5753 5753 5752 5751 5749 5747 5745 5744 5742 5740 5738 5736 5734 5732 5730 5727 5725 5722 5719 5716 5713 5710 5707 5703 5700 5696 5692 5688 5683 5678 5674 5669 5664
5747 5747 5746 5746 5746 5745 5745 5745 5745 5744 5744 5743 5742 5740 5739 5737 5735 5733 5731 5729 5727 5726 5724 5721 5719 5717 5714 5711 5708 5705 5702 5699 5695 5692 5688 5684 5680 5676 5671 5667 5662 5657 5652
5738 5738 5738 5737 5737 5736 5736 5736 5735 5735 5734 5733 5732 5730 5728 5727 5725 5723 5721 5719 5717 5715 5713 5711 5709 5706 5703 5700 5697 5694 5691 5687 5684 5680 5676 5672 5668 5664 5659 5655 5650 5645 5640
5728 5728 5728 5728 5727 5727 5726 5726 5725 5725 5724 5723 5721 5720 5718 5717 5715 5713 5711 5709 5707 5705 5703 5700 5698 5695 5692 5689 5686 5682 5679 5676 5672 5668 5664 5660 5656 5652 5648 5643 5638 5633 5629
5718 5718 5718 5718 5717 5717 5716 5716 5715 5714 5713 5712 5711 5710 5708 5707 5705 5703 5701 5699 5696 5694 5692 5689 5686 5683 5680 5677 5673 5670 5667 5663 5660 5656 5652 5648 5644 5640 5636 5632 5627 5622 5617
5707 5708 5708 5707 5707 5707 5706 5705 5705 5704 5703 5702 5701 5699 5698 5696 5694 5692 5690 5688 5685 5683 5680 5677 5674 5671 5668 5664 5661 5657 5654 5651 5647 5644 5640 5637 5633 5628 5624 5620 5615 5611 5606
5697 5697 5697 5696 5696 5696 5695 5695 5694 5693 5692 5691 5690 5688 5687 5685 5683 5681 5679 5676 5674 5671 5668 5665 5662 5659 5655 5652 5649 5645 5642 5639 5635 5632 5628 5625 5621 5617 5613 5608 5604 5599 5595